Weather History for KIND - March, 2014

Change the Weather History Date:

Saturday, March 29, 2014

  Actual Average Record
Temperature  
Mean Temperature 35 °F 47 °F  
Max Temperature 38 °F 57 °F 82 °F (1895)
Min Temperature 32 °F 37 °F 16 °F (1887)
Degree Days  
Heating Degree Days 30 18  
Month to date heating degree days 860 671  
Since 1 July heating degree days 5657 4814  
Cooling Degree Days 0 0  
Month to date cooling degree days 0 0  
Year to date cooling degree days 0 0  
Moisture  
Dew Point 33 °F    
Average Humidity 88    
Maximum Humidity 100    
Minimum Humidity 76    
Precipitation  
Precipitation 0.55 in 0.13 in 1.46 in (1928)
Month to date precipitation 2.38 3.30  
Year to date precipitation 7.17 8.28  
Snow  
Snow T in 0.00 in 0.50 in (1885)
Month to date snowfall 3.1 2.5  
Since 1 July snowfall 55.4 25.6  
Snow Depth 0.00 in    
Sea Level Pressure  
Sea Level Pressure 30.08 in    
Wind  
Wind Speed 13 mph (North)    
Max Wind Speed 22 mph    
Max Gust Speed 26 mph    
Visibility 6 miles    
Events Rain    
T = Trace of Precipitation, MM = Missing Value Source: NWS Daily Summary

Daily Weather History Graph

Daily Weather History Graph

Search for Another Location

Airport or City:

Trip Planner

Search our weather history database for the weather conditions in past years. The results will help you decide how hot, cold, wet, or windy it might be!

Date:

Astronomy

Mar. 29, 2014 Rise Set
Actual Time 7:34 AM EDT 8:06 PM EDT
Civil Twilight 7:07 AM EDT 8:33 PM EDT
Nautical Twilight 6:35 AM EDT 9:05 PM EDT
Astronomical Twilight 6:02 AM EDT 9:38 PM EDT
Moon 6:42 AM EDT (3/29) 7:10 PM EDT (3/29)
Length of Visible Light 13h 26m
Length of Day
12h 32m
Waning Crescent, 2% of the Moon is Illuminated
Mar 29
Waning Crescent
Mar 30
New
Apr 7
First Quarter
Apr 15
Full
Apr 22
Last Quarter

Hourly Weather History & Observations

Time (EDT) Temp. Windchill Dew Point Humidity Pressure Visibility Wind Dir Wind Speed Gust Speed Precip Events Conditions
12:54 AM 37.0 °F 29.3 °F 32.0 °F 82% 30.10 in 10.0 mi NNE 11.5 mph - N/A   Overcast
1:54 AM 37.0 °F 31.0 °F 32.0 °F 82% 30.10 in 10.0 mi NNE 8.1 mph - N/A   Overcast
2:54 AM 36.0 °F 28.0 °F 32.0 °F 86% 30.08 in 10.0 mi NNE 11.5 mph - N/A   Overcast
3:54 AM 35.1 °F 27.4 °F 32.0 °F 89% 30.06 in 9.0 mi NNE 10.4 mph - N/A   Overcast
4:54 AM 35.1 °F 28.6 °F 32.0 °F 89% 30.06 in 9.0 mi NNW 8.1 mph - N/A   Overcast
5:32 AM 35.1 °F 27.4 °F 32.0 °F 89% 30.04 in 9.0 mi North 10.4 mph - N/A   Overcast
5:54 AM 35.1 °F 26.9 °F 32.0 °F 89% 30.06 in 9.0 mi North 11.5 mph - N/A   Overcast
6:54 AM 35.1 °F 26.4 °F 33.1 °F 92% 30.05 in 8.0 mi North 12.7 mph - 0.00 in Rain Light Rain
7:27 AM 35.1 °F 25.9 °F 33.1 °F 92% 30.02 in 4.0 mi NNE 13.8 mph - 0.07 in Rain Rain
7:54 AM 35.1 °F 26.9 °F 34.0 °F 96% 30.04 in 3.0 mi North 11.5 mph - 0.12 in Rain Light Rain
8:10 AM 35.1 °F 26.4 °F 34.0 °F 96% 30.03 in 2.5 mi North 12.7 mph - 0.04 in Rain Light Rain
8:17 AM 34.0 °F 25.0 °F 34.0 °F 100% 30.03 in 2.5 mi North 12.7 mph - 0.07 in Rain Heavy Rain
8:31 AM 34.0 °F 25.0 °F 33.1 °F 96% 30.03 in 1.8 mi North 12.7 mph - 0.13 in Rain Heavy Rain
8:54 AM 33.1 °F 23.4 °F 32.0 °F 96% 30.05 in 1.8 mi North 13.8 mph - 0.23 in Rain Rain
9:17 AM 33.1 °F 23.9 °F 32.0 °F 96% 30.03 in 1.8 mi North 12.7 mph - 0.06 in Rain Rain
9:28 AM 33.1 °F 23.4 °F 32.0 °F 96% 30.03 in 1.8 mi NNE 13.8 mph - 0.07 in Rain Rain
9:54 AM 33.1 °F 24.9 °F 32.0 °F 96% 30.06 in 1.8 mi NNE 10.4 mph - 0.11 in Rain Rain
10:09 AM 34.0 °F 25.5 °F 33.1 °F 96% 30.04 in 1.8 mi North 11.5 mph - 0.02 in Rain Light Rain
10:54 AM 34.0 °F 25.5 °F 33.1 °F 96% 30.06 in 2.5 mi NNE 11.5 mph - 0.06 in Rain Light Rain
11:09 AM 35.1 °F 26.9 °F 34.0 °F 96% 30.05 in 3.0 mi North 11.5 mph - 0.02 in Rain Light Rain
11:54 AM 35.1 °F 26.9 °F 34.0 °F 96% 30.06 in 4.0 mi NNE 11.5 mph - 0.03 in Rain Light Rain
12:54 PM 36.0 °F 27.5 °F 35.1 °F 97% 30.05 in 7.0 mi North 12.7 mph - 0.00 in   Overcast
1:54 PM 35.1 °F 25.2 °F 33.1 °F 92% 30.06 in 7.0 mi North 16.1 mph - N/A   Overcast
2:54 PM 36.0 °F 25.6 °F 33.1 °F 89% 30.05 in 8.0 mi North 18.4 mph - N/A   Overcast
3:23 PM 36.0 °F 26.7 °F 33.1 °F 89% 30.04 in 9.0 mi North 15.0 mph 25.3 mph N/A   Overcast
3:54 PM 36.0 °F 26.7 °F 33.1 °F 89% 30.07 in 9.0 mi North 15.0 mph - N/A   Overcast
4:54 PM 37.0 °F 28.9 °F 33.1 °F 86% 30.08 in 10.0 mi NNW 12.7 mph - N/A   Overcast
5:54 PM 37.0 °F 28.1 °F 34.0 °F 89% 30.10 in 7.0 mi NNW 15.0 mph - N/A   Overcast
6:54 PM 37.0 °F 28.5 °F 34.0 °F 89% 30.12 in 7.0 mi NNW 13.8 mph - N/A   Overcast
7:54 PM 37.0 °F 28.5 °F 33.1 °F 86% 30.15 in 7.0 mi NNW 13.8 mph - N/A   Overcast
8:54 PM 37.0 °F 27.7 °F 30.9 °F 79% 30.17 in 10.0 mi NNW 16.1 mph - N/A   Overcast
9:54 PM 36.0 °F 26.7 °F 32.0 °F 86% 30.18 in 9.0 mi NW 15.0 mph - N/A   Overcast
10:54 PM 35.1 °F 26.4 °F 30.0 °F 82% 30.20 in 10.0 mi NW 12.7 mph - N/A   Overcast
11:54 PM 34.0 °F 24.6 °F 30.0 °F 85% 30.21 in 10.0 mi NNW 13.8 mph - N/A   Overcast